Regional Weather Roundup
Issued by NWS

Home | Current Version | Previous Version | Text Only | Print | Product List | Glossary On
Versions: 1 2 3 4 5 6 7 8 9 10 11 12 13 14 15 16 17 18 19 20 21 22 23 24 25 26 27 28 29 30 31 32 33 34 35 36 37 38 39 40 41 42 43 44 45 46 47 48 49 50
000
ASUS44 KOUN 280610
RWROK

WEATHER ROUNDUP FOR OKLAHOMA
NATIONAL WEATHER SERVICE NORMAN OK
100 AM CDT MON JUL 28 2014

NOTE: "FAIR" INDICATES FEW OR NO CLOUDS BELOW 12,000 FEET WITH NO
      SIGNIFICANT WEATHER AND/OR OBSTRUCTIONS TO VISIBILITY.

OKZ001>007-009>012-014-015-017-280700-
NORTHWEST OKLAHOMA AND THE PANHANDLE

CITY           SKY/WX    TMP DP  RH WIND       PRES   REMARKS
GAGE           PTCLDY    70  61  73 NE3       30.21S
6HR MIN TEMP:  69; 6HR MAX TEMP:  86;

ENID/WOODRING  PTCLDY    72  68  88 N3        30.13S
$$

OKZ016-021>023-033>039-044-045-280700-
SOUTHWEST OKLAHOMA

CITY           SKY/WX    TMP DP  RH WIND       PRES   REMARKS
LAWTON/REGL    PTCLDY    83  65  54 NE10      30.09R
6HR MIN TEMP:  83; 6HR MAX TEMP:  99;

LAWTON/FT SILL LGT RAIN  82  66  57 E16G24    30.09S
FREDERICK      CLEAR     83  69  62 NE14      30.06R
CLINTON        MOCLDY    78  59  51 NE10      30.17F
HOBART         MOCLDY    80  58  46 E16       30.13S
ALTUS AFB      CLOUDY    81  64  56 NE15      30.10R
$$

OKZ018>020-024>031-280700-
CENTRAL OKLAHOMA

CITY           SKY/WX    TMP DP  RH WIND       PRES   REMARKS
OKLAHOMA CITY  PTCLDY    77  62  59 NE7       30.13S
6HR MIN TEMP:  77; 6HR MAX TEMP:  90;

OKC/WILEY POST PTCLDY    76  65  68 NE7       30.13S
OKC/TINKER AFB CLEAR     74  63  68 NE8       30.12F
STILLWATER     MOCLDY    71  68  90 N6        30.13S
GUTHRIE        PTCLDY    74  67  78 NE7       30.13S
$$

OKZ008-013-054>072-280700-
NORTHEAST OKLAHOMA

CITY           SKY/WX    TMP DP  RH WIND       PRES   REMARKS
TULSA          PTCLDY    72  69  90 NW6       30.09S
6HR MIN TEMP:  72; 6HR MAX TEMP:  85;

TULSA/JONES    CLEAR     72  69  90 CALM      30.10S
PONCA CITY     CLEAR     69  66  90 NE5       30.14R
BARTLESVILLE   CLEAR     70  68  93 CALM      30.13S
MUSKOGEE       PTCLDY    73  66  78 N5        30.10R
$$

OKZ032-040>043-046>053-073>077-280700-
SOUTH CENTRAL/SOUTHEAST OKLAHOMA

CITY           SKY/WX    TMP DP  RH WIND       PRES   REMARKS
ARDMORE/DWNTWN PTCLDY    82  72  69 E3        30.05S
MCALESTER      CLEAR     79  68  69 N9        30.08R
$$




USA.gov is the U.S. government's official web portal to all federal, state and local government web resources and services.